Location: Moscow
(46.7324°N, 117.0002°W)
Time: 05:28:09
(UTC+00:00)

Daily predictions for brighter satellites

Satellite Brightness Start Highest point End
(mag) Time Altitude Azimuth Time Altitude Azimuth Time Altitude Azimuth
Thor Agena Rocket 3.6 00:38:16 10° SSE 00:43:30 72° ENE 00:48:46 10° N
Cosmos 1140 Rocket 4.2 00:39:23 10° SSE 00:44:02 34° ESE 00:48:40 10° NE
Cosmos 2084 Rocket 3.7 00:43:19 10° SSW 00:47:20 50° SE 00:51:25 10° NE
Cosmos 2173 Rocket 4.2 00:41:27 10° SSW 00:47:40 78° W 00:53:51 10° N
Cosmos 1908 Rocket 3.6 00:43:59 10° S 00:48:23 77° E 00:52:50 10° NNE
UNK 3.9 00:46:06 10° NNE 00:50:39 56° E 00:55:10 10° S
Cosmos 1975 Rocket 3.7 00:49:01 10° N 00:52:56 32° ENE 00:56:50 10° SE
Cosmos 1484 Rocket 3.6 00:52:20 10° S 00:55:43 50° W 00:59:10 10° NNW
Cosmos 1441 Rocket 2.7 00:53:12 10° N 00:56:34 76° E 00:59:54 10° SSE
SL-08 R/B 4.4 00:51:35 10° S 00:57:36 66° E 01:03:38 10° NNE
Cosmos 1802 Rocket 4.1 00:51:11 10° S 00:57:36 89° E 01:04:04 10° N
Cosmos 1869 4.4 00:58:18 10° SE 01:00:53 19° E 01:03:28 10° NE
Cosmos 921 Rocket 3.3 00:58:53 10° SSW 01:03:12 72° WNW 01:07:37 10° NNE
COSMO-SKYMED 1 4.0 01:06:58 11° NE 01:09:25 16° E 01:12:00 10° SE
SAR-Lupe-3 4.1 01:08:12 10° NNE 01:10:46 43° E 01:13:19 10° S
ARIANE 5 R/B 2.4 01:10:13 10° SSE 01:15:11 80° ENE 01:20:12 10° NNW
Tsikada Rocket 4.0 01:09:08 10° N 01:15:35 81° E 01:21:57 10° S
SL-4 R/B 3.8 01:15:41 10° W 01:18:37 26° SW 01:21:38 10° SSE
SL-16 R/B 3.4 01:13:04 10° N 01:19:08 54° WNW 01:25:10 10° SW
Cosmos 1812 3.8 01:19:20 10° SE 01:20:41 16° ESE 01:20:41 16° ESE
Cosmos 2016 Rocket 4.3 01:15:08 10° SSW 01:21:24 74° W 01:27:48 10° N
CORIOLIS 4.5 01:17:31 10° S 01:22:52 72° WSW 01:28:15 10° NNW
Cosmos 1023 Rocket 4.4 01:18:21 10° SSW 01:23:31 81° ESE 01:28:40 10° NNE
Cosmos 2082 Rocket 3.0 01:19:14 10° N 01:24:04 29° NE 01:28:04 14° ESE
Cosmos 2278 Rocket 2.8 01:23:00 10° S 01:28:05 36° ESE 01:32:26 14° NE
SL-12 R/B(2) 4.4 01:23:04 10° SSW 01:30:39 56° ESE 01:39:49 10° NE
Cosmos 1943 Rocket 2.6 01:26:51 10° S 01:32:02 40° ESE 01:36:24 14° NE
ATLAS CENTAUR R/B 3.2 01:30:53 10° W 01:33:25 19° NW 01:35:58 10° N
CZ-4C R/B 3.6 01:30:06 10° W 01:34:07 27° NNW 01:39:02 10° NNE
YAOGAN 1 3.1 01:32:10 10° SE 01:36:01 35° ENE 01:39:54 10° N
SPOT 1/Viking Rocket 3.6 01:32:49 10° SE 01:37:50 54° ENE 01:42:53 10° N
RESURS DK-1 2.6 01:35:05 10° NNW 01:38:55 41° NE 01:41:22 19° ESE
Cosmos 44 Rocket 4.1 01:34:58 10° S 01:39:07 31° ESE 01:40:55 24° ENE
Cosmos 2344 4.4 01:33:26 10° NW 01:40:21 36° NNE 01:45:43 20° E
Resurs 1-3 4.0 01:37:17 10° SE 01:41:13 37° ENE 01:45:11 10° N
SMAP 4.2 01:37:44 10° S 01:42:13 47° W 01:46:44 10° NNW
PSLV R/B 3.8 01:39:23 10° SE 01:43:08 38° ENE 01:46:53 10° N
BREEZE M DEB (TANK) 4.1 01:27:01 10° W 01:45:27 74° N 01:48:31 25° ENE
Cosmos 407 Rocket 3.5 01:40:46 10° S 01:45:53 61° ESE 01:50:32 12° NNE
ISS -3.1 01:43:20 10° SW 01:46:29 39° SE 01:47:13 34° ESE
Okean 2 Rocket 4.4 01:43:05 10° SE 01:45:20 21° ESE 01:45:20 21° ESE
CZ-2D R/B 4.3 01:44:29 10° S 01:47:27 38° W 01:50:27 10° NNW
Resurs 01 Rocket 3.4 01:49:43 16° NNE 01:49:43 16° NNE 01:51:07 10° NNE
COSMOS 2406 4.2 01:44:10 10° N 01:48:53 26° NE 01:49:56 25° ENE
TIMED 4.5 01:45:02 10° SSW 01:49:17 81° WNW 01:53:19 11° NNE
Helios 1A Rocket 2.7 01:51:38 41° E 01:51:53 42° E 01:55:07 10° S
Nadezhda 4 Rocket 4.2 01:46:22 10° N 01:52:23 44° ENE 01:58:19 10° SE
CZ-2D R/B 3.3 01:48:40 10° SSE 01:52:44 69° ENE 01:56:55 10° N
SJ 16-02 2.8 01:49:47 10° SSE 01:51:41 19° SE 01:51:41 19° SE
Cosmos 1536 Rocket 4.0 01:50:29 10° N 01:54:38 37° ENE 01:56:28 26° ESE
ATLAS 2AS CENTAUR R/B 3.9 01:50:41 10° NNW 01:56:02 23° NNE 01:58:14 20° NE
Spot 4 Rocket 3.9 01:54:18 10° SSE 01:59:21 71° ENE 02:04:27 10° N
ATLAS 5 CENTAUR R/B 2.6 01:56:59 10° NW 02:01:21 52° SW 02:06:44 10° SSE
Timation 2 Rocket 4.1 01:57:30 10° SSW 02:04:21 77° ESE 02:10:27 14° NNE
Cosmos 2058 2.6 02:02:54 10° N 02:06:52 65° E 02:10:48 10° SSE
Cosmos 1833 Rocket 4.2 02:02:15 10° NW 02:07:25 38° WSW 02:12:35 10° S
MOS 1 Rocket 3.9 02:09:22 10° S 02:13:32 51° W 02:17:51 10° NNW
Cosmos 1763 Rocket 3.9 02:14:42 10° NNW 02:19:52 63° WSW 02:24:56 10° S
Aureole 3 Rocket 2.7 02:17:02 10° SSW 02:20:04 58° W 02:20:18 56° NW
Cosmos 540 Rocket 3.7 02:17:18 10° NNW 02:22:26 70° WSW 02:27:30 10° S
NOAA 6 3.9 02:19:29 10° SSE 02:24:38 77° ENE 02:29:47 10° NNW
Cosmos 2151 Rocket 3.4 02:24:07 10° S 02:28:35 82° E 02:29:42 51° NNE
Cosmos 2251 Rocket 3.4 02:28:41 10° SSW 02:33:58 86° ESE 02:35:51 42° NNE
Cosmos 1464 Rocket 3.9 02:29:42 10° S 02:36:02 88° WNW 02:42:19 10° N
Geosat 4.0 02:40:39 38° SSE 02:42:34 77° WSW 02:47:36 10° NNW
COSMO-SKYMED 1 3.2 02:43:20 30° NNW 02:45:02 50° WNW 02:49:00 10° SSW
Cosmos 2034 Rocket 3.8 02:41:10 10° S 02:47:20 77° E 02:53:36 10° NNE
BREEZE-M DEB (TANK) 2.9 02:45:32 10° W 02:48:35 70° N 02:48:40 69° N
USA 281 3.1 02:54:09 64° E 02:54:42 67° ENE 03:01:15 10° NNW
Cosmos 841 Rocket 4.0 02:51:30 10° NNW 02:55:22 49° N 02:55:22 49° N
Cosmos 1092 Rocket 4.2 03:00:02 10° N 03:05:05 58° NNE 03:05:05 58° NNE
Cosmos 2082 Rocket 2.7 03:02:59 10° NW 03:08:28 55° WSW 03:09:59 42° SSW
Cosmos 2278 Rocket 3.3 03:06:45 10° SW 03:12:05 41° NW 03:14:18 29° N
BREEZE-M DEB (TANK) 3.9 03:08:48 10° W 03:11:43 66° WNW 03:11:43 66° WNW
Cosmos 1943 Rocket 3.5 03:10:37 10° WSW 03:15:47 37° NW 03:17:56 27° N
Cosmos 2026 Rocket 4.0 03:10:37 10° N 03:16:07 72° NW 03:16:07 72° NW
Cosmos 44 Rocket 4.5 03:15:48 10° WSW 03:19:33 40° WNW 03:19:33 40° WNW
ISS -0.3 03:19:58 10° W 03:20:09 11° W 03:20:09 11° W
Resurs 01 Rocket 4.1 03:27:08 16° NNW 03:27:08 16° NNW 03:28:09 10° NNW
CZ-4C R/B 4.4 03:21:01 10° NW 03:24:31 17° N 03:24:31 17° N
BREEZE-M DEB (TANK) 4.4 03:16:14 10° WNW 03:26:44 53° SW 03:26:44 53° SW
SJ 16-02 3.8 03:27:05 10° SW 03:28:17 17° WSW 03:28:17 17° WSW
COSMOS 2406 4.1 03:27:59 10° NNW 03:32:00 45° NW 03:32:00 45° NW
ATLAS 2AS CENTAUR R/B 3.7 03:41:38 10° NW 03:45:39 36° NNW 03:45:39 36° NNW
Cosmos 2344 3.9 03:47:31 10° NW 03:55:37 80° SW 03:55:46 80° SW
CENTAUR R/B 4.4 10:48:26 28° N 10:49:46 29° NNE 10:57:18 10° E
ADEOS Rocket 4.2 10:59:05 10° NNE 11:03:26 43° NNE 11:03:26 43° NNE
ACS3 Solar Sail 3.6 11:02:37 10° NNE 11:04:34 22° NNE 11:04:34 22° NNE
USA 234 3.9 11:13:12 10° E 11:19:11 48° NNE 11:19:11 48° NNE
CZ-2C R/B 3.7 11:34:01 10° NNE 11:37:35 39° NE 11:37:35 39° NE
NOSS 0 Rocket 4.5 11:44:22 48° NNE 11:44:22 48° NNE 11:48:44 10° NNE
COSMOS 2428 4.3 11:51:07 25° N 11:51:07 25° N 11:53:34 10° NNE
Cosmos 1980 4.2 11:51:56 52° NNE 11:51:56 52° NNE 11:56:08 10° NNE
Meteor 2-5 Rocket 4.0 11:52:18 63° NNE 11:52:18 63° NNE 11:57:08 10° NNE
Cosmos 1802 Rocket 4.0 11:45:04 10° N 11:52:01 75° SSE 11:57:40 10° S
SJ 16-02 2.8 11:54:41 35° ENE 11:54:41 35° ENE 11:58:14 10° SE
